Location: Altenhof
(50.2418°N, 10.8789°E)
Time: 00:04:42
(UTC+00:00)

Cosmos 1605 Rocket - Pass Details

Date: 18 February 2020
Orbit: 944 x 1007 km, 82.9° (Epoch: 04 April)

Event Time Altitude Azimuth Distance (km) Brightness Sun altitude
Rises 04:28:38 0° 345° (NNW) 3,702 6.9 -18.9°
Reaches altitude 10° 04:31:18 10° 339° (NNW) 2,740 6.2 -18.5°
Maximum altitude 04:37:05 41° 272° (W) 1,374 4.3 -17.6°
Drops below altitude 10° 04:42:46 10° 204° (SSW) 2,683 6.1 -16.7°
Sets 04:45:21 0° 197° (SSW) 3,617 6.8 -16.3°
